This is the latest recevied weather packets stored in our database for station/object JQ1YUX-13. If no packets are shown the sender has not sent any weather packets the latest 10 day(s).
| Time | Temp. | Humidity | Pressure | Rain* | Wind** | Luminosity | Snow |
|---|---|---|---|---|---|---|---|
| 1777741985 | 17.22° C | 76% | 1011.2 hPa | 0 mm | - | - | - |
| 1777741086 | 17.22° C | 77% | 1011.1 hPa | 0 mm | - | - | - |
| 1777740184 | 17.22° C | 78% | 1011.2 hPa | 0 mm | - | - | - |
| 1777739284 | 17.22° C | 77% | 1010.7 hPa | 0 mm | - | - | - |
| 1777738385 | 17.22° C | 76% | 1010.9 hPa | 0 mm | - | - | - |
| 1777737485 | 17.78° C | 75% | 1011.1 hPa | 0 mm | - | - | - |
| 1777736584 | 17.78° C | 74% | 1011.3 hPa | 0 mm | - | - | - |
| 1777735685 | 17.78° C | 72% | 1011.2 hPa | 0 mm | - | - | - |
| 1777734786 | 18.33° C | 72% | 1011.3 hPa | 0 mm | - | - | - |
| 1777733886 | 18.89° C | 68% | 1011.3 hPa | 0 mm | - | - | - |
| 1777732985 | 18.89° C | 67% | 1011.1 hPa | 0 mm | - | - | - |
| 1777732086 | 18.89° C | 67% | 1011.1 hPa | 0 mm | - | - | - |
| 1777731185 | 18.89° C | 67% | 1011.2 hPa | 0 mm | - | - | - |
| 1777730285 | 18.89° C | 68% | 1011.3 hPa | 0 mm | - | - | - |
| 1777729385 | 19.44° C | 69% | 1011.2 hPa | 0 mm | - | - | - |
| 1777728486 | 20° C | 66% | 1011.2 hPa | 0 mm | - | - | - |
| 1777727584 | 20.56° C | 64% | 1011.2 hPa | 0 mm | - | - | - |
| 1777726685 | 20.56° C | 63% | 1011.1 hPa | 0 mm | - | - | - |
| 1777725785 | 20.56° C | 62% | 1010.8 hPa | 0 mm | - | - | - |
| 1777724885 | 20.56° C | 59% | 1010.6 hPa | 0 mm | - | - | - |
| 1777723985 | 21.11° C | 60% | 1010.4 hPa | 0 mm | - | - | - |
| 1777723085 | 21.67° C | 61% | 1010.1 hPa | 0 mm | - | - | - |
| 1777722185 | 21.67° C | 55% | 1010 hPa | 0 mm | - | - | - |
| 1777721286 | 21.67° C | 53% | 1009.7 hPa | 0 mm | - | - | - |
| 1777720384 | 22.22° C | 54% | 1009.5 hPa | 0 mm | - | - | - |
* Rain latest hour (hover to see other rain measurements)
** Current wind speed in m/s (hover to see current wind gust speed)